Weather History for Sultan Abdul Halim, Malaysia

Change the Weather History Date:

Monday, October 29, 2012

  Actual Average (VTSS) Record (VTSS)
Temperature  
Mean Temperature 86 °F -  
Max Temperature 95 °F 85 °F 91 °F (2002)
Min Temperature 77 °F 74 °F 73 °F (2004)
Cooling Degree Days 21    
Growing Degree Days 36 (Base 50)    
Moisture  
Dew Point 78 °F    
Average Humidity 84    
Maximum Humidity 94    
Minimum Humidity 67    
Precipitation  
Precipitation 0.00 in - - ()
Sea Level Pressure  
Sea Level Pressure 29.74 in    
Wind  
Wind Speed 3 mph ()    
Max Wind Speed 8 mph    
Max Gust Speed -    
Visibility 6.2 miles    
Events Thunderstorm    
Averages and records for this station are not official NWS values.
T = Trace of Precipitation, MM = Missing Value Source: Averaged Metar Reports

Daily Weather History Graph

Daily Weather History Graph

Search for Another Location

Airport:

Trip Planner

Search our weather history database for the weather conditions in past years. The results will help you decide how hot, cold, wet, or windy it might be!

Date:

Astronomy

Oct. 29, 2012 Rise Set
Actual Time 7:04 AM MYT 6:59 PM MYT
Civil Twilight 6:43 AM MYT 7:20 PM MYT
Nautical Twilight 6:18 AM MYT 7:45 PM MYT
Astronomical Twilight 5:53 AM MYT 8:10 PM MYT
Moon 6:36 PM MYT (10/29) 6:25 AM MYT (10/29)
Length of Visible Light 12h 37m
Length of Day
11h 54m
Full, 100% of the Moon is Illuminated
Oct 29
Full
Oct 30
Full
Nov 7
Last Quarter
Nov 14
New
Nov 20
First Quarter

Hourly Weather History & Observations

Time (MYT) Temp. Heat Index Dew Point Humidity Pressure Visibility Wind Dir Wind Speed Gust Speed Precip Events Conditions
12:00 AM 78.8 °F - 77.0 °F 94% 29.80 in 6.2 mi North 2.3 mph - N/A   Mostly Cloudy
1:00 AM 78.8 °F - 77.0 °F 94% 29.80 in 6.2 mi NNW 1.2 mph - N/A   Mostly Cloudy
2:00 AM 78.8 °F - 75.2 °F 89% 29.77 in 6.2 mi NNE 2.3 mph - N/A   Mostly Cloudy
3:00 AM 78.8 °F - 75.2 °F 89% 29.74 in 5.6 mi NNW 1.2 mph - N/A   Mostly Cloudy
4:00 AM 77.0 °F - 75.2 °F 94% 29.74 in 6.2 mi NNE 2.3 mph - N/A   Mostly Cloudy
5:00 AM 77.0 °F - 75.2 °F 94% 29.71 in 6.2 mi NNE 2.3 mph - N/A   Mostly Cloudy
6:00 AM 77.0 °F - 75.2 °F 94% 29.74 in 6.2 mi NNE 2.3 mph - N/A   Mostly Cloudy
7:00 AM 77.0 °F - 75.2 °F 94% 29.77 in 6.2 mi North 1.2 mph - N/A   Mostly Cloudy
8:00 AM 77.0 °F - 75.2 °F 94% 29.77 in 6.2 mi North 1.2 mph - N/A   Mostly Cloudy
9:00 AM 80.6 °F 87.1 °F 77.0 °F 89% 29.80 in 6.2 mi NNE 3.5 mph - N/A   Mostly Cloudy
11:00 AM 87.8 °F 102.5 °F 78.8 °F 75% 29.80 in 6.2 mi ENE 5.8 mph - N/A   Mostly Cloudy
12:00 PM 89.6 °F 108.2 °F 80.6 °F 75% 29.77 in 6.2 mi NE 5.8 mph - N/A   Mostly Cloudy
1:00 PM 91.4 °F 111.0 °F 80.6 °F 71% 29.74 in 6.2 mi NE 6.9 mph - N/A   Mostly Cloudy
2:00 PM 93.2 °F 113.6 °F 80.6 °F 67% 29.71 in 6.2 mi ENE 4.6 mph - N/A   Mostly Cloudy
3:00 PM 95.0 °F 119.6 °F 82.4 °F 67% 29.68 in 6.2 mi ENE 5.8 mph - N/A   Mostly Cloudy
4:00 PM 93.2 °F 113.6 °F 80.6 °F 67% 29.65 in 6.2 mi NW 3.5 mph - N/A   Mostly Cloudy
5:00 PM 93.2 °F 117.1 °F 82.4 °F 71% 29.65 in 6.2 mi NW 4.6 mph - N/A   Mostly Cloudy
6:00 PM 89.6 °F 108.2 °F 80.6 °F 75% 29.65 in 6.2 mi North 4.6 mph - N/A   Mostly Cloudy
7:00 PM 86.0 °F 101.9 °F 80.6 °F 84% 29.68 in 6.2 mi West 4.6 mph - N/A Thunderstorm Thunderstorm
8:00 PM 78.8 °F - 75.2 °F 89% 29.74 in 6.2 mi South 8.1 mph - N/A Thunderstorm Thunderstorm
10:00 PM 77.0 °F - 75.2 °F 94% 29.77 in 6.2 mi West 1.2 mph - N/A   Mostly Cloudy
11:00 PM 78.8 °F - 75.2 °F 89% 29.80 in 6.2 mi ESE 1.2 mph - N/A   Mostly Cloudy